User: anonymous   Login
Location: Unspecified
(0.0000°N, 0.0000°E)
Time: 04:11:51
(UTC+00:00)
Language:

GEESAT 2-01 - Orbit

View from above orbital plane
View from above orbital plane
View from above satellite
View from above satellite

Ground track
Ground track

The orbit is defined by the following mean orbital elements,

1 58905U          26145.37050361 +.00000000 +00000-0 +20389-3 0 00008
2 58905  49.9945  99.7628 0005590 303.9148  56.1258 14.83161846    06
Epoch (UTC): 25 May 2026 08:53:31
Eccentricity: 0.0005590
inclination: 49.9945°
perigee height: 615 km
apogee height: 623 km
right ascension of ascending node: 99.7628°
argument of perigee: 303.9148°
revolutions per day: 14.83161846
mean anomaly at epoch: 56.1258°

The dashed part of the orbit path shows where the satellite is in the earth's shadow,  

DLR